カタログに戻る

CARTOSAT 2B

運用中科学SSO
NORAD 36795·PAYLOAD·🇮🇳 India

打ち上げ Jul 12, 2010 から Satish Dhawan Space Centre

Loading…

次のパス (今後24時間)

TLE

最新Source: Space-Track

元期: Sep 14, 2026, 14:19 UTC

1 36795U 10035A   26257.59717228  .00000525  00000-0  78862-4 0  9999
2 36795  97.9867 307.5336 0010026 262.7025  97.3046 14.78624847873062

AllMySatでCARTOSAT 2Bをリアルタイム追跡

Download on the App Store